Temperature
23 25 25 25 25 25 24 22 22 22 22 22 22 22 23 23 23 23 23 23 23 22 22 22 22 21 21 21 20 20 20 19 19 19 19 19 18 18 18 18 17 17 17 17
23 25 25 25 25 25 25 24 23 22 22 21 22 22 22 22 22 22 22 22 22 22 22 21 21 21 21 20 20 20 20 19 19 19 19 18 18 18 18 17 17 17 17 17
21 23 24 23 24 24 23 23 23 22 21 21 21 21 22 22 22 22 22 22 22 21 21 21 21 21 20 20 20 19 19 19 19 19 18 18 18 17 17 17 17 16 16 16
20 22 22 22 23 24 24 23 22 22 22 21 21 21 22 22 22 21 21 21 21 21 21 21 21 20 20 20 20 19 19 19 19 18 18 17 17 17 17 16 16 16 16 16
19 20 21 23 23 23 23 22 22 22 21 21 21 21 20 21 21 21 21 21 21 21 20 20 20 20 19 19 19 19 19 18 18 18 17 17 17 16 16 16 16 16 15 15
19 21 21 22 23 24 23 21 21 21 21 21 20 19 19 20 21 20 21 21 20 20 20 19 19 19 19 19 18 18 18 18 17 17 17 16 16 16 16 16 15 15 15 15
19 20 20 21 23 23 21 20 21 21 21 21 20 20 20 20 20 20 20 20 20 19 19 19 18 18 18 18 18 18 18 17 17 17 17 16 16 16 16 15 15 15 15 15
18 19 20 21 22 21 20 21 21 21 21 21 20 20 20 20 20 19 19 19 19 19 18 18 18 18 18 18 17 17 17 17 16 16 16 16 16 15 15 15 15 15 14 14
17 18 19 21 21 22 22 21 21 21 21 21 20 19 19 19 19 19 19 18 18 18 18 17 17 17 17 17 17 16 16 16 16 16 15 15 15 15 15 15 15 14 14 14
17 18 19 21 21 22 22 21 21 21 20 20 19 19 19 18 18 18 18 18 18 18 17 17 17 17 16 16 16 16 16 16 15 15 15 15 15 15 14 14 14 14 14 14
16 17 18 20 20 20 21 21 21 20 20 20 19 18 18 18 18 18 17 17 17 17 17 16 16 16 16 16 16 16 15 15 15 15 14 14 14 14 14 14 14 14 14 14
16 17 17 18 19 20 20 20 20 20 19 19 19 18 18 17 17 17 17 16 16 16 16 16 16 15 15 15 15 15 15 15 14 14 14 14 14 14 14 14 14 13 13 13
19 19 19 19 19 20 19 19 19 19 19 18 18 18 17 17 17 16 16 16 16 15 15 15 15 15 15 15 14 14 14 14 14 14 14 14 14 14 14 14 13 13 13 13
19 19 19 18 18 19 19 19 18 18 18 18 17 17 17 16 16 16 16 15 15 15 15 15 15 14 14 14 14 14 14 14 14 14 14 14 13 13 13 13 13 13 13 13
19 19 18 18 18 18 18 18 18 17 17 17 16 16 16 16 16 15 15 15 15 15 15 14 14 14 14 14 14 14 13 13 13 13 13 13 13 13 13 13 13 12 12 12
18 18 18 18 17 17 17 17 17 16 16 16 16 16 16 15 15 15 15 15 14 14 14 14 14 14 14 14 13 13 13 13 13 13 13 13 13 13 13 12 12 12 12 12
17 17 17 17 17 17 16 16 16 16 16 16 15 15 15 15 15 14 14 14 14 14 14 14 14 13 13 13 13 13 13 13 13 13 13 13 12 12 12 12 12 12 11 11
18 17 17 17 17 16 16 16 16 16 16 15 15 15 15 15 14 14 14 14 14 14 13 13 13 13 13 13 13 13 13 12 12 12 12 12 12 12 12 12 11 11 11 11
17 17 17 17 17 16 16 16 16 16 15 15 15 15 14 14 14 14 14 14 13 13 13 13 13 13 13 13 13 12 12 12 12 12 12 12 12 12 11 11 11 11 11 11
16 16 16 16 16 16 16 16 15 15 15 15 14 14 14 14 14 13 13 13 13 13 13 12 12 12 12 12 12 12 12 12 12 11 11 11 11 11 11 11 11 10 10 10
15 15 15 15 15 15 15 15 15 15 14 14 14 14 13 13 13 13 13 13 12 12 12 12 12 12 12 12 12 12 11 11 11 11 11 11 11 11 11 10 10 10 10 10
15 15 15 15 15 15 15 14 14 14 14 14 14 13 13 13 13 12 12 12 12 12 12 12 12 12 12 11 11 11 11 11 11 11 11 11 11 10 10 10 10 10 9 9
15 14 14 14 14 14 14 14 14 14 14 13 13 13 13 12 12 12 12 12 11 11 11 11 11 11 11 11 11 11 11 11 11 10 10 10 10 10 10 10 9 9 9 9
14 14 14 14 14 14 14 14 14 13 13 13 13 12 12 12 12 12 11 11 11 11 11 11 11 11 10 10 10 10 10 10 10 10 10 10 10 9 9 9 9 9 8 8
14 14 14 14 14 13 13 13 13 13 13 12 12 12 12 12 11 11 11 11 11 11 10 10 10 10 10 10 10 10 10 10 10 10 9 9 9 9 9 9 9 8 8 8
14 14 14 14 13 13 13 13 13 12 12 12 12 12 11 11 11 11 11 11 10 10 10 10 10 10 10 10 10 10 10 9 9 9 9 9 9 8 8 8 8 8 8 7
13 13 13 13 13 13 13 13 12 12 12 12 11 11 11 11 11 11 11 10 10 10 10 10 10 10 10 9 9 9 9 9 9 9 9 8 8 8 8 8 8 7 7 7
Wind_Speed
4 3 2 0 1 0 2 6 7 6 7 8 7 8 7 7 7 8 8 8 8 8 6 5 5 4 4 4 4 5 5 3 3 3 2 2 2 2 1 1 1 1 1 0
1 0 2 1 1 1 1 3 5 5 4 3 4 5 5 7 8 9 9 9 8 7 7 6 5 4 4 3 3 4 5 3 2 2 2 2 2 2 2 1 1 1 1 1
1 2 3 2 3 3 2 2 6 5 5 4 5 6 6 6 7 9 9 7 6 6 6 6 5 5 4 3 3 4 4 2 2 2 2 2 2 2 2 1 1 1 1 1
1 3 2 5 2 4 4 2 3 4 5 6 6 5 4 5 7 8 8 8 6 5 5 4 4 4 3 3 3 4 3 2 2 2 1 2 2 2 1 1 2 2 1 1
3 2 2 3 1 3 4 1 2 8 8 7 8 7 5 2 5 6 8 7 6 6 5 5 5 4 4 4 4 4 3 2 2 2 1 2 2 2 1 1 1 1 1 1
4 4 4 5 4 2 7 1 2 6 8 8 6 5 3 2 5 6 6 6 6 5 6 5 4 4 5 3 3 3 2 2 1 2 2 2 2 2 1 1 1 0 0 0
4 3 4 5 3 3 4 6 4 4 6 6 4 5 5 4 5 5 5 6 6 6 5 3 3 5 5 4 2 1 2 2 2 2 2 2 2 1 1 1 1 1 1 1
3 3 5 5 2 3 6 4 4 4 4 5 6 7 7 6 5 5 5 6 6 6 4 3 4 5 5 3 1 2 3 3 2 2 1 2 2 1 1 2 1 1 1 1
5 5 4 1 3 3 5 6 4 5 5 7 8 8 7 5 5 4 5 5 5 6 5 3 3 4 4 1 2 3 3 3 2 2 2 2 2 2 1 1 1 0 0 1
2 1 1 2 3 4 6 6 6 8 7 8 9 8 7 6 4 4 4 4 4 6 5 3 2 3 3 2 3 4 3 2 1 2 2 2 2 1 1 1 1 0 1 2
2 0 3 5 4 4 5 6 9 9 8 9 10 8 7 6 5 4 4 4 5 5 5 3 3 3 3 3 3 4 3 2 1 1 1 1 1 1 0 1 2 3 3 2
4 5 3 2 0 5 6 6 8 9 7 7 8 7 7 6 4 5 5 5 5 4 4 3 3 3 2 3 4 4 3 2 1 1 1 1 1 1 3 2 2 3 3 2
4 3 4 3 2 5 6 6 7 8 8 7 6 7 7 5 4 5 5 5 4 3 3 3 3 2 1 2 3 4 2 1 1 1 0 0 1 1 1 4 5 4 2 1
4 5 5 3 3 4 6 7 8 8 7 8 6 6 6 6 5 5 4 4 4 4 3 3 3 1 0 2 2 2 1 1 0 1 1 0 0 1 1 1 1 3 3 2
3 4 4 4 4 5 6 8 9 8 7 7 7 6 6 6 5 3 3 4 4 4 3 2 2 1 0 1 2 1 1 1 1 1 1 0 0 0 0 0 0 1 1 2
3 5 6 6 5 5 6 7 8 7 5 6 6 6 5 5 4 3 3 4 4 3 2 2 1 1 0 1 1 1 1 2 1 0 0 0 0 0 0 0 0 0 0 1
4 3 4 5 5 5 5 5 5 6 5 5 5 6 5 5 4 2 2 2 3 3 3 3 2 1 0 1 1 0 1 2 2 1 0 1 1 1 1 1 1 1 1 1
6 5 6 7 6 6 5 4 4 4 5 5 5 5 5 5 4 3 2 2 2 1 0 1 2 1 1 1 1 0 0 1 0 0 0 1 0 0 0 0 1 1 1 1
4 5 5 6 6 6 5 5 5 4 4 5 5 4 4 4 4 3 2 3 3 1 2 1 0 1 1 1 1 1 1 1 1 0 0 0 1 1 0 0 0 0 0 0
5 4 4 4 5 5 5 5 5 4 4 4 4 3 2 2 2 3 3 2 2 3 3 1 1 1 0 0 1 1 1 1 0 0 0 0 0 1 1 1 1 1 1 1
5 4 3 3 3 3 4 5 5 5 3 4 5 4 3 2 2 3 3 1 2 1 2 2 1 0 0 1 0 0 1 1 1 1 0 0 0 0 1 1 1 1 1 0
3 3 3 2 3 3 3 4 5 5 4 3 4 4 3 3 2 2 1 2 2 1 1 0 1 1 0 0 0 0 1 1 1 1 0 0 1 1 1 0 0 0 1 0
2 2 2 2 3 2 3 4 5 5 4 4 4 4 4 3 2 2 1 1 1 2 1 1 0 1 1 1 0 0 1 1 1 0 0 0 1 1 1 0 0 0 0 0
2 2 1 2 3 3 3 3 3 4 4 3 3 4 4 3 1 1 2 1 2 2 1 1 0 1 1 1 0 0 1 1 1 0 0 0 1 1 1 1 1 1 0 0
2 2 3 4 4 3 3 4 4 4 3 2 2 2 2 3 3 2 1 1 2 2 1 1 1 1 1 1 1 1 1 1 0 0 0 0 0 1 1 1 1 1 1 1
3 3 3 3 3 3 3 3 3 2 2 2 1 1 1 2 3 2 2 2 2 2 1 1 1 1 1 1 1 1 1 1 1 1 1 1 1 2 1 1 2 1 1 1
2 2 2 2 1 2 3 4 3 3 2 3 2 1 1 1 2 2 2 2 2 1 1 1 1 1 1 1 1 1 1 1 1 1 1 1 1 1 2 2 2 1 1 1
Wind_Direction
198 195 142 250 303 207 163 170 166 193 181 192 186 174 158 140 130 131 130 135 138 141 144 141 136 135 146 150 155 152 144 150 182 193 170 153 156 167 167 161 175 184 173 189
337 272 74 21 347 84 108 141 139 143 203 211 179 143 134 134 134 134 136 140 142 140 136 132 133 136 130 134 146 141 143 160 173 164 152 154 157 141 133 127 131 126 151 176
287 300 44 320 230 163 137 136 142 161 204 162 140 142 150 147 143 143 141 138 137 139 140 140 141 135 136 136 133 133 141 148 141 146 154 164 158 135 150 167 155 171 198 182
123 52 196 251 230 129 122 96 125 139 146 146 145 144 128 125 134 141 130 124 128 126 123 131 126 114 107 98 109 127 134 135 127 121 156 167 146 153 180 169 172 189 215 225
125 161 266 299 314 149 125 26 110 130 129 116 112 87 47 60 116 127 123 122 123 121 118 107 102 105 103 98 105 110 118 122 136 144 165 171 162 181 183 168 198 208 218 199
133 153 214 249 264 172 107 18 325 131 138 140 121 118 198 188 113 109 108 109 106 106 103 104 103 106 106 103 96 107 123 134 147 160 160 164 172 181 182 164 181 131 360 140
147 174 241 267 272 81 122 220 236 160 145 144 152 165 168 137 111 112 115 114 111 107 103 108 112 107 104 97 97 111 96 89 88 117 141 148 152 159 148 118 83 64 47 15
134 153 241 290 54 141 194 178 147 128 129 125 126 121 126 125 119 110 110 108 110 106 95 84 95 103 96 87 68 71 77 73 66 67 94 112 117 107 107 113 89 57 50 355
172 199 236 264 151 167 140 126 128 127 135 131 131 131 128 126 126 120 118 112 113 115 107 92 89 104 104 88 76 80 79 68 54 54 60 81 118 128 114 106 113 129 192 274
99 299 337 73 78 94 115 126 125 124 129 125 126 132 129 128 127 118 112 112 115 112 108 99 87 90 101 94 93 92 87 74 67 67 52 45 63 110 139 175 174 228 244 259
94 166 38 34 50 86 95 104 108 112 123 129 127 129 132 130 129 124 113 112 114 116 117 112 94 81 74 79 86 82 69 53 52 51 77 64 51 44 141 212 200 197 222 225
202 211 157 212 104 85 95 104 114 113 109 113 121 123 119 120 116 115 115 112 113 112 112 111 100 92 77 77 82 80 64 41 29 34 51 95 104 13 1 348 307 245 229 210
175 166 144 153 97 84 93 105 112 114 116 115 111 118 115 110 107 111 111 109 115 119 116 116 114 106 89 84 82 80 70 29 3 13 31 47 149 145 360 359 11 12 337 278
114 103 85 75 92 84 96 96 96 98 101 108 111 113 114 109 110 115 125 135 132 125 116 110 106 106 156 109 89 68 50 7 309 256 258 310 295 183 168 144 360 346 343 332
81 106 126 109 86 87 93 100 101 98 98 101 107 109 113 117 121 132 137 126 119 112 109 106 96 22 339 109 102 80 56 341 299 293 269 270 328 135 133 145 187 306 345 347
91 93 104 103 102 100 98 105 118 119 117 114 110 112 114 122 122 122 121 121 123 136 154 143 168 270 311 84 74 51 3 3 14 316 299 16 86 137 166 183 309 257 244 275
123 124 123 128 131 124 122 125 137 139 133 130 129 125 119 111 100 101 124 143 147 164 171 172 198 211 155 111 105 316 330 333 8 48 93 197 183 199 210 183 201 228 246 248
145 156 150 142 139 132 124 119 127 132 138 140 136 127 125 130 150 166 166 137 104 75 355 217 189 173 166 132 115 41 349 345 352 116 91 94 129 153 139 150 221 236 288 337
110 123 122 125 129 126 123 130 139 135 131 134 133 137 149 163 169 169 148 129 126 147 276 279 90 62 25 5 79 51 10 10 352 334 98 110 88 74 84 116 154 143 176 62
103 105 100 106 115 123 131 136 133 131 136 139 135 134 134 157 159 149 141 158 212 215 202 157 124 112 347 323 59 57 16 347 297 294 56 80 107 88 56 60 91 112 92 70
104 106 107 114 115 124 133 136 137 139 134 129 135 147 152 150 141 140 135 179 271 239 168 136 132 188 250 278 340 46 357 318 272 247 228 195 151 84 71 68 64 56 66 64
98 92 95 104 108 122 146 148 142 137 126 120 123 129 126 121 113 105 136 200 221 183 146 146 196 194 226 343 351 320 293 290 268 241 227 145 123 121 118 136 226 18 57 76
104 100 98 114 134 147 153 148 146 146 144 142 146 149 150 154 154 145 233 271 184 156 145 171 185 37 11 25 4 356 312 303 286 279 126 123 142 160 166 157 124 88 98 260
119 113 126 130 112 108 125 148 141 138 134 133 146 154 150 140 129 191 189 175 152 153 153 172 165 324 335 349 333 341 338 323 306 299 106 110 127 140 145 136 110 98 102 79
149 124 124 126 125 135 146 134 116 112 112 116 115 124 143 157 168 192 182 167 165 160 175 196 192 244 263 264 244 220 230 251 252 152 128 105 133 147 158 154 145 146 150 165
141 147 149 153 156 153 144 131 127 129 125 115 97 114 113 119 139 152 149 158 155 157 178 220 229 247 255 255 249 235 237 252 261 216 191 161 137 138 153 159 154 156 160 170
115 119 116 108 120 136 133 131 135 142 152 154 161 170 152 142 142 149 155 172 188 199 214 239 247 243 247 252 259 266 264 244 219 184 162 161 173 180 187 182 181 174 172 177
Height
1479 1475 1475 1477 1477 1477 1483 1489 1498 1496 1494 1488 1484 1484 1485 1487 1488 1490 1491 1493 1495 1497 1499 1500 1501 1502 1503 1504 1504 1504 1504 1505 1505 1506 1506 1506 1505 1505 1505 1504 1504 1503 1503 1503
1480 1474 1474 1478 1476 1475 1477 1480 1484 1487 1489 1481 1482 1483 1485 1486 1488 1489 1490 1492 1494 1496 1497 1498 1499 1500 1501 1501 1502 1502 1502 1503 1503 1503 1504 1504 1503 1503 1502 1502 1501 1501 1500 1500
1491 1480 1479 1489 1479 1476 1479 1477 1480 1488 1486 1480 1483 1483 1484 1486 1487 1488 1489 1491 1493 1494 1495 1496 1498 1498 1499 1499 1500 1500 1500 1501 1501 1501 1501 1501 1501 1501 1500 1499 1499 1498 1498 1498
1494 1490 1502 1488 1470 1470 1474 1476 1475 1477 1478 1479 1481 1483 1484 1485 1486 1487 1488 1490 1492 1494 1495 1495 1496 1496 1497 1497 1498 1498 1498 1499 1499 1499 1499 1499 1499 1498 1498 1497 1497 1496 1496 1495
1498 1501 1495 1481 1472 1472 1476 1481 1475 1476 1478 1480 1482 1484 1487 1487 1486 1487 1488 1489 1491 1493 1494 1494 1495 1495 1496 1496 1496 1496 1496 1496 1497 1497 1497 1497 1496 1496 1496 1495 1494 1494 1493 1493
1494 1499 1503 1485 1470 1467 1472 1486 1477 1477 1478 1479 1480 1488 1490 1487 1487 1488 1489 1490 1491 1492 1493 1493 1494 1495 1495 1495 1494 1494 1494 1495 1495 1495 1495 1495 1495 1494 1494 1493 1493 1492 1491 1491
1492 1496 1490 1474 1468 1467 1487 1488 1477 1476 1477 1478 1479 1481 1484 1485 1487 1488 1488 1489 1490 1491 1492 1492 1493 1493 1493 1493 1492 1493 1493 1493 1493 1493 1493 1493 1493 1493 1492 1492 1491 1490 1489 1489
1491 1497 1493 1470 1468 1473 1476 1472 1474 1475 1475 1477 1478 1480 1482 1485 1486 1487 1487 1488 1489 1490 1491 1491 1492 1491 1491 1491 1491 1491 1491 1491 1491 1491 1491 1491 1491 1491 1490 1490 1489 1489 1488 1487
1482 1484 1473 1468 1468 1469 1470 1472 1473 1474 1476 1477 1478 1480 1482 1484 1486 1487 1487 1488 1489 1489 1490 1491 1491 1491 1491 1491 1491 1490 1490 1490 1490 1490 1490 1490 1489 1489 1489 1488 1487 1487 1486 1485
1477 1475 1471 1470 1470 1470 1471 1471 1473 1474 1476 1478 1479 1480 1482 1484 1486 1487 1488 1488 1489 1489 1490 1490 1490 1490 1490 1490 1490 1489 1489 1489 1489 1489 1489 1489 1489 1488 1487 1487 1486 1485 1484 1484
1477 1474 1472 1471 1471 1471 1472 1473 1473 1475 1477 1478 1479 1480 1482 1484 1485 1486 1487 1488 1489 1489 1489 1490 1490 1490 1490 1489 1489 1489 1488 1488 1488 1488 1487 1487 1487 1487 1486 1486 1485 1484 1483 1482
1476 1472 1473 1474 1473 1473 1473 1474 1474 1476 1478 1480 1480 1481 1482 1483 1485 1486 1487 1488 1488 1489 1489 1489 1489 1489 1489 1489 1488 1488 1488 1488 1488 1487 1487 1486 1486 1486 1485 1485 1484 1483 1482 1481
1468 1469 1470 1472 1473 1473 1474 1474 1475 1476 1477 1479 1481 1482 1483 1484 1485 1486 1487 1487 1488 1489 1489 1489 1489 1489 1489 1488 1488 1487 1487 1487 1487 1486 1486 1485 1485 1484 1483 1483 1482 1481 1480 1479
1468 1468 1470 1472 1473 1473 1474 1475 1475 1477 1478 1480 1482 1483 1483 1484 1486 1487 1486 1487 1487 1488 1489 1489 1489 1488 1489 1489 1488 1487 1487 1486 1486 1485 1485 1484 1483 1483 1482 1481 1480 1479 1479 1478
1469 1469 1470 1472 1473 1474 1474 1475 1476 1478 1479 1481 1482 1482 1483 1484 1485 1486 1486 1486 1487 1488 1488 1488 1488 1488 1488 1488 1487 1486 1486 1485 1485 1484 1483 1482 1482 1481 1480 1479 1479 1478 1477 1476
1469 1470 1471 1472 1473 1474 1475 1476 1477 1478 1479 1480 1481 1482 1483 1485 1485 1486 1486 1486 1486 1487 1487 1488 1488 1488 1488 1487 1487 1486 1485 1484 1483 1482 1481 1480 1480 1479 1478 1477 1476 1476 1475 1474
1468 1470 1471 1472 1473 1475 1476 1477 1478 1478 1479 1480 1481 1482 1483 1484 1485 1486 1486 1486 1486 1486 1487 1487 1487 1487 1486 1486 1485 1485 1484 1483 1481 1480 1479 1479 1478 1477 1476 1475 1474 1474 1473 1472
1468 1469 1470 1471 1473 1474 1476 1477 1478 1479 1479 1481 1482 1482 1483 1484 1485 1485 1485 1485 1485 1485 1486 1486 1486 1485 1484 1484 1484 1483 1482 1481 1480 1479 1478 1477 1476 1475 1475 1474 1473 1472 1471 1471
1468 1469 1469 1470 1472 1473 1475 1476 1478 1479 1479 1481 1482 1482 1483 1484 1484 1484 1484 1484 1484 1483 1483 1484 1484 1484 1483 1482 1482 1481 1480 1479 1478 1477 1476 1475 1475 1474 1473 1472 1471 1471 1470 1469
1467 1468 1469 1470 1472 1473 1474 1475 1477 1478 1479 1480 1481 1482 1482 1483 1483 1483 1483 1483 1482 1482 1482 1482 1482 1482 1481 1481 1480 1479 1478 1478 1477 1476 1475 1474 1473 1472 1471 1471 1470 1469 1468 1468
1467 1468 1469 1470 1471 1473 1473 1474 1476 1477 1478 1478 1479 1480 1481 1481 1481 1482 1481 1481 1481 1481 1481 1480 1480 1479 1480 1479 1478 1477 1476 1476 1475 1475 1474 1472 1471 1470 1470 1469 1468 1467 1467 1466
1467 1468 1469 1470 1471 1472 1473 1474 1474 1475 1476 1477 1478 1479 1479 1480 1480 1480 1480 1480 1479 1479 1479 1478 1478 1477 1477 1477 1476 1475 1475 1474 1473 1473 1472 1470 1470 1469 1468 1467 1466 1466 1465 1464
1467 1468 1469 1470 1471 1471 1472 1473 1474 1474 1475 1476 1476 1477 1477 1478 1478 1478 1478 1478 1478 1477 1477 1477 1476 1476 1475 1475 1474 1473 1472 1472 1471 1470 1469 1468 1468 1467 1466 1465 1465 1464 1463 1462
1467 1468 1469 1470 1470 1471 1471 1472 1473 1474 1475 1475 1476 1476 1476 1477 1477 1477 1477 1476 1475 1475 1475 1475 1474 1474 1473 1473 1472 1471 1470 1470 1469 1468 1467 1466 1466 1465 1464 1464 1463 1462 1461 1460
1467 1467 1468 1469 1470 1470 1471 1471 1472 1473 1474 1475 1475 1475 1476 1476 1476 1475 1475 1474 1474 1474 1473 1473 1473 1472 1472 1471 1470 1469 1468 1468 1467 1466 1465 1464 1463 1463 1462 1461 1460 1460 1458 1457
1467 1467 1468 1469 1469 1470 1470 1471 1471 1472 1473 1474 1474 1474 1474 1474 1474 1474 1474 1473 1473 1472 1472 1471 1471 1470 1470 1469 1468 1467 1466 1466 1465 1464 1463 1462 1461 1460 1460 1459 1458 1457 1456 1454
1467 1467 1468 1468 1469 1470 1470 1471 1471 1472 1473 1473 1473 1473 1473 1472 1472 1472 1472 1472 1471 1471 1470 1470 1469 1468 1468 1467 1466 1465 1464 1464 1463 1462 1461 1460 1459 1458 1457 1456 1455 1454 1453 1451